Location: Maiden
(35.5760°N, 81.2120°W)
Time: 02:52:13
(UTC-04:00)

Cosmos 1606 - Pass Details

Date: 02 August 2020
Orbit: 504 x 527 km, 82.5° (Epoch: 11 August)

Event Time Altitude Azimuth Distance (km) Brightness Sun altitude
Rises 21:20:14 0° 352° (N) 2,657 6.9 -10.5°
Reaches altitude 10° 21:22:23 10° 352° (N) 1,761 6.0 -10.8°
Maximum altitude 21:26:15 84° 263° (W) 526 2.7 -11.5°
Drops below altitude 10° 21:30:04 10° 176° (S) 1,735 5.0 -12.2°
Enters shadow 21:30:57 - 176° (S) 2,104 5.4 -12.3°
